Mora, MN

10:31 PM CDT on October 20, 2017 (GMT -0500)
Mora Municipal

Weather History for KJMR - May, 2013

Change the Weather History Date:

Monday, May 27, 2013

  Actual Average Record
Temperature  
Mean Temperature 54 °F -  
Max Temperature 59 °F 73 °F 93 °F (1969)
Min Temperature 48 °F 45 °F 1 °F (2007)
Degree Days  
Heating Degree Days 12    
Growing Degree Days 4 (Base 50)    
Moisture  
Dew Point 45 °F    
Average Humidity 69    
Maximum Humidity 82    
Minimum Humidity 58    
Precipitation  
Precipitation 0.00 in - - ()
Sea Level Pressure  
Sea Level Pressure 29.98 in    
Wind  
Wind Speed 4 mph (ESE)    
Max Wind Speed 15 mph    
Max Gust Speed 22 mph    
Visibility 10 miles    
Events      
Averages and records for this station are not official NWS values.
T = Trace of Precipitation, MM = Missing Value Source: NWS Daily Summary

Daily Weather History Graph

Daily Weather History Graph

Search for Another Location

Airport or City:

Trip Planner

Search our weather history database for the weather conditions in past years. The results will help you decide how hot, cold, wet, or windy it might be!

Date:

Astronomy

May. 27, 2013 Rise Set
Actual Time 5:29 AM CDT 8:51 PM CDT
Civil Twilight 4:52 AM CDT 9:28 PM CDT
Nautical Twilight 4:04 AM CDT 10:16 PM CDT
Astronomical Twilight 3:03 AM CDT 11:18 PM CDT
Moon 11:27 PM CDT (5/27) 8:09 AM CDT (5/27)
Length of Visible Light 16h 35m
Length of Day
15h 22m
Waning Gibbous, 91% of the Moon is Illuminated
May 27
Waning Gibbous
May 31
Last Quarter
Jun 8
New
Jun 16
First Quarter
Jun 23
Full

Hourly Weather History & Observations

Time (CDT) Temp. Dew Point Humidity Pressure Visibility Wind Dir Wind Speed Gust Speed Precip Events Conditions
12:11 AM 53.6 °F 41.0 °F 62% 30.08 in 10.0 mi Calm Calm - N/A   Overcast
12:31 AM 55.4 °F 41.0 °F 58% 30.09 in 10.0 mi Calm Calm - N/A   Overcast
12:51 AM 55.4 °F 41.0 °F 58% 30.10 in 10.0 mi Calm Calm - N/A   Overcast
1:11 AM 53.6 °F 41.0 °F 62% 30.10 in 10.0 mi Calm Calm - N/A   Overcast
1:31 AM 53.6 °F 41.0 °F 62% 30.07 in 10.0 mi Calm Calm - N/A   Overcast
1:51 AM 53.6 °F 41.0 °F 62% 30.05 in 10.0 mi Calm Calm - N/A   Overcast
2:11 AM 53.6 °F 41.0 °F 62% 30.06 in 10.0 mi Calm Calm - N/A   Overcast
2:31 AM 53.6 °F 41.0 °F 62% 30.06 in 10.0 mi Calm Calm - N/A   Overcast
2:51 AM 53.6 °F 41.0 °F 62% 30.07 in 10.0 mi Calm Calm - N/A   Scattered Clouds
3:11 AM 50.0 °F 41.0 °F 71% 30.06 in 10.0 mi Calm Calm - N/A   Mostly Cloudy
3:31 AM 50.0 °F 41.0 °F 71% 30.05 in 10.0 mi Calm Calm - N/A   Mostly Cloudy
3:51 AM 50.0 °F 41.0 °F 71% 30.05 in 10.0 mi Calm Calm - N/A   Scattered Clouds
4:11 AM 48.2 °F 41.0 °F 76% 30.03 in 10.0 mi Calm Calm - N/A   Scattered Clouds
4:31 AM 50.0 °F 42.8 °F 76% 30.03 in 10.0 mi Calm Calm - N/A   Overcast
4:51 AM 50.0 °F 42.8 °F 76% 30.04 in 10.0 mi East 3.5 mph - N/A   Overcast
5:11 AM 50.0 °F 41.0 °F 71% 30.04 in 10.0 mi Calm Calm - N/A   Overcast
5:31 AM 50.0 °F 41.0 °F 71% 30.05 in 10.0 mi Calm Calm - N/A   Overcast
5:51 AM 50.0 °F 41.0 °F 71% 30.05 in 10.0 mi Calm Calm - N/A   Overcast
6:11 AM 50.0 °F 41.0 °F 71% 30.05 in 10.0 mi Calm Calm - N/A   Overcast
6:31 AM 50.0 °F 41.0 °F 71% 30.04 in 10.0 mi Calm Calm - N/A   Overcast
6:51 AM 50.0 °F 41.0 °F 71% 30.03 in 10.0 mi Calm Calm - N/A   Overcast
7:11 AM 51.8 °F 41.0 °F 67% 30.03 in 10.0 mi East 5.8 mph - N/A   Overcast
7:31 AM 53.6 °F 42.8 °F 67% 30.03 in 10.0 mi Calm Calm - N/A   Overcast
7:51 AM 53.6 °F 42.8 °F 67% 30.02 in 10.0 mi East 6.9 mph - N/A   Overcast
8:11 AM 53.6 °F 42.8 °F 67% 30.01 in 10.0 mi ESE 9.2 mph - N/A   Overcast
8:31 AM 53.6 °F 42.8 °F 67% 30.02 in 10.0 mi ESE 4.6 mph - N/A   Overcast
8:51 AM 53.6 °F 42.8 °F 67% 30.02 in 10.0 mi ESE 9.2 mph - N/A   Overcast
9:11 AM 53.6 °F 42.8 °F 67% 30.01 in 10.0 mi East 6.9 mph - N/A   Overcast
9:31 AM 53.6 °F 41.0 °F 62% 30.02 in 10.0 mi ESE 9.2 mph - N/A   Overcast
9:51 AM 55.4 °F 42.8 °F 63% 30.01 in 10.0 mi ESE 8.1 mph - N/A   Overcast
10:11 AM 55.4 °F 42.8 °F 63% 30.00 in 10.0 mi East 8.1 mph 17.3 mph N/A   Overcast
10:31 AM 55.4 °F 42.8 °F 63% 29.99 in 10.0 mi Calm Calm - N/A   Overcast
10:51 AM 55.4 °F 42.8 °F 63% 29.99 in 10.0 mi ESE 8.1 mph - N/A   Overcast
11:11 AM 55.4 °F 44.6 °F 67% 29.99 in 10.0 mi ESE 10.4 mph 16.1 mph N/A   Overcast
11:31 AM 55.4 °F 46.4 °F 72% 29.98 in 10.0 mi East 12.7 mph 18.4 mph N/A   Overcast
11:51 AM 55.4 °F 46.4 °F 72% 29.97 in 10.0 mi East 15.0 mph 20.7 mph N/A   Overcast
12:11 PM 55.4 °F 46.4 °F 72% 29.96 in 10.0 mi ESE 8.1 mph - N/A   Overcast
12:31 PM 55.4 °F 46.4 °F 72% 29.96 in 10.0 mi ESE 9.2 mph - N/A   Overcast
12:51 PM 55.4 °F 44.6 °F 67% 29.95 in 10.0 mi ESE 8.1 mph - N/A   Overcast
1:11 PM 55.4 °F 46.4 °F 72% 29.94 in 10.0 mi ESE 8.1 mph - N/A   Overcast
1:31 PM 57.2 °F 44.6 °F 63% 29.94 in 10.0 mi East 9.2 mph - N/A   Overcast
1:51 PM 57.2 °F 44.6 °F 63% 29.94 in 10.0 mi East 11.5 mph 17.3 mph N/A   Overcast
2:11 PM 57.2 °F 46.4 °F 67% 29.94 in 10.0 mi East 9.2 mph 17.3 mph N/A   Overcast
2:31 PM 57.2 °F 46.4 °F 67% 29.95 in 10.0 mi ESE 9.2 mph - N/A   Overcast
2:51 PM 55.4 °F 48.2 °F 77% 29.95 in 10.0 mi ESE 10.4 mph - N/A   Overcast
3:11 PM 55.4 °F 48.2 °F 77% 29.95 in 10.0 mi ESE 9.2 mph - N/A   Overcast
3:31 PM 55.4 °F 48.2 °F 77% 29.94 in 10.0 mi ESE 9.2 mph - N/A   Overcast
3:51 PM 57.2 °F 48.2 °F 72% 29.93 in 10.0 mi East 6.9 mph - N/A   Overcast
4:11 PM 57.2 °F 48.2 °F 72% 29.93 in 10.0 mi ESE 8.1 mph - N/A   Overcast
4:31 PM 59.0 °F 50.0 °F 72% 29.92 in 10.0 mi ESE 6.9 mph - N/A   Overcast
4:51 PM 59.0 °F 48.2 °F 67% 29.92 in 10.0 mi ESE 6.9 mph - N/A   Overcast
5:11 PM 59.0 °F 48.2 °F 67% 29.92 in 10.0 mi ESE 6.9 mph - N/A   Overcast
5:31 PM 59.0 °F 48.2 °F 67% 29.92 in 10.0 mi ESE 8.1 mph - N/A   Overcast
5:51 PM 59.0 °F 46.4 °F 63% 29.92 in 10.0 mi East 10.4 mph 16.1 mph N/A   Overcast
6:11 PM 59.0 °F 46.4 °F 63% 29.91 in 10.0 mi ESE 9.2 mph - N/A   Overcast
6:31 PM 59.0 °F 48.2 °F 67% 29.90 in 10.0 mi SE 4.6 mph - N/A   Overcast
6:51 PM 57.2 °F 48.2 °F 72% 29.89 in 10.0 mi ESE 10.4 mph 17.3 mph N/A   Overcast
7:11 PM 57.2 °F 48.2 °F 72% 29.89 in 10.0 mi ESE 8.1 mph 19.6 mph N/A   Overcast
7:31 PM 59.0 °F 46.4 °F 63% 29.89 in 10.0 mi ESE 11.5 mph 21.9 mph N/A   Overcast
7:51 PM 59.0 °F 46.4 °F 63% 29.90 in 10.0 mi ESE 10.4 mph 16.1 mph N/A   Overcast
8:11 PM 57.2 °F 46.4 °F 67% 29.90 in 10.0 mi SE 8.1 mph - N/A   Overcast
8:31 PM 55.4 °F 46.4 °F 72% 29.90 in 10.0 mi SE 4.6 mph - N/A   Overcast
8:51 PM 55.4 °F 48.2 °F 77% 29.91 in 10.0 mi SSE 5.8 mph - N/A   Overcast
9:11 PM 55.4 °F 48.2 °F 77% 29.91 in 10.0 mi SSE 4.6 mph - N/A   Overcast
9:31 PM 55.4 °F 48.2 °F 77% 29.90 in 10.0 mi SE 5.8 mph - N/A   Overcast
9:51 PM 55.4 °F 48.2 °F 77% 29.90 in 10.0 mi ESE 5.8 mph - N/A   Overcast
10:11 PM 55.4 °F 48.2 °F 77% 29.90 in 10.0 mi ESE 9.2 mph - N/A   Overcast
10:31 PM 55.4 °F 48.2 °F 77% 29.90 in 10.0 mi ESE 8.1 mph - N/A   Overcast
10:51 PM 55.4 °F 48.2 °F 77% 29.89 in 10.0 mi ESE 8.1 mph 16.1 mph N/A   Overcast
11:11 PM 55.4 °F 48.2 °F 77% 29.89 in 10.0 mi ESE 8.1 mph - N/A   Overcast
11:31 PM 55.4 °F 50.0 °F 82% 29.88 in 10.0 mi ESE 4.6 mph - N/A   Overcast
11:51 PM 55.4 °F 50.0 °F 82% 29.89 in 10.0 mi SE 5.8 mph - N/A   Overcast